Flag for U.S.A. Weather past 2 weeks in Wichita, Kansas, U.S.A.

Now
79 °F

Scattered clouds.


Feels Like: 80 °F
Forecast: 59 / 79 °F
Wind: 9 mph from South

Location: Wichita Mid-Continent Airport

Current Time: Oct 21, 2014 at 7:02:00 PM

Latest Report: Oct 21, 2014 at 5:53 PM


Visibility: 10 mi

Pressure: 29.97 "Hg

Humidity: 48%

Dew point: 58 °F

Location of WichitaLocation

Historic Weather in Wichita — Graph

°F

Wichita temperature yesterday

Maximum temperature yesterday: 81 °F (at 3:53 PM)
Minimum temperature yesterday: 53 °F (at 7:53 AM)
Average temperature yesterday: 66 °F

Past Weeks' High & Low Weather Summary

 TemperatureHumidityPressure
High91 °F (Oct 7, 3:53 PM)96% (Oct 13, 3:53 AM)30.25 "Hg (Oct 13, 3:53 AM)
Low42 °F (Oct 15, 7:53 AM)17% (Oct 7, 3:53 PM)29.58 "Hg (Oct 13, 4:53 AM)
Average62 °F62%29.95 "Hg
* Reported Oct 6 5:53 PM — Oct 21 5:53 PM, Wichita, Weather by CustomWeather, © 2014

Note: Actual official high and low records may vary slightly from our data, if they occured in-between our weather recording intervals... More about our weather records

Advertising

Wichita weather history for previous 24 hours

 ConditionsComfort  
Time TempWeatherWind HumidityBarometerVisibility
5:53 PM
Oct 21
79 °FScattered clouds.9 mph48%29.97 "Hg10 mi
4:53 PM81 °FPartly sunny.9 mph47%29.98 "Hg10 mi
3:53 PM82 °FPassing clouds.14 mph46%29.98 "Hg10 mi
2:53 PM80 °FPassing clouds.10 mph47%30.00 "Hg10 mi
1:53 PM79 °FScattered clouds.9 mph45%30.03 "Hg10 mi
12:53 PM77 °FPassing clouds.14 mph48%30.06 "Hg10 mi
11:53 AM75 °FPassing clouds.15 mph47%30.07 "Hg10 mi
10:53 AM71 °FPassing clouds.12 mph57%30.09 "Hg10 mi
9:53 AM64 °FScattered clouds.9 mph78%30.09 "Hg10 mi
8:53 AM60 °FBroken clouds.7 mph83%30.08 "Hg8 mi
7:53 AM55 °FPassing clouds.6 mph87%30.06 "Hg8 mi
6:53 AM55 °FPassing clouds.6 mph83%30.06 "Hg10 mi
5:53 AM52 °FPassing clouds.5 mph86%30.06 "Hg10 mi
4:53 AM54 °FPassing clouds.5 mph80%30.05 "Hg10 mi
3:53 AM52 °FClear.No wind83%30.04 "Hg10 mi
2:53 AM52 °FClear.No wind80%30.04 "Hg10 mi
1:53 AM55 °FClear.No wind74%30.05 "Hg10 mi
12:53 AM54 °FClear.No wind77%30.04 "Hg10 mi
11:53 PM
Oct 20
56 °FClear.No wind72%30.05 "Hg10 mi
10:53 PM57 °FClear.No wind69%30.06 "Hg10 mi
9:53 PM66 °FClear.3 mph49%30.05 "Hg10 mi
8:53 PM66 °FClear.6 mph49%30.03 "Hg10 mi
7:53 PM73 °FClear.6 mph36%30.03 "Hg10 mi
Weather by CustomWeather, © 2014

See weather overviewHow to use our weather pages